Location: Steinbach
(49.5170°N, 96.6830°W)
Time: 12:23:01
(UTC-05:00)

Daily predictions for brighter satellites

Satellite Brightness Start Highest point End
(mag) Time Altitude Azimuth Time Altitude Azimuth Time Altitude Azimuth
COSMOS 2428 2.7 18:41:20 10° NNW 18:47:02 66° ENE 18:52:41 10° SE
Cosmos 2333 Rocket 2.7 18:44:09 10° NNW 18:49:36 42° NE 18:55:03 10° ESE
NOSS 0 Rocket 4.3 18:45:45 10° NNW 18:51:38 43° NE 18:57:29 10° ESE
Cosmos 2219 4.1 18:49:10 10° SSE 18:54:02 29° ESE 18:58:53 10° NE
Cosmos 1833 4.2 18:48:32 10° SSW 18:54:12 74° ESE 18:59:49 10° NNE
ERS-2 2.1 18:51:57 10° SSE 18:55:38 75° ENE 18:59:21 10° NNW
AQUARIUS 4.5 18:54:43 10° S 18:59:13 75° WSW 19:03:44 10° NNW
Cosmos 2058 3.0 18:55:51 10° N 19:00:03 84° W 19:04:12 10° S
Cosmos 1726 3.4 18:57:33 10° SE 19:00:15 20° E 19:02:58 10° NE
Sich 1 4.0 18:58:31 10° NNE 19:02:14 26° ENE 19:05:56 10° SE
SL-8 R/B 3.9 18:58:56 10° WSW 19:03:42 63° SSE 19:08:21 11° E
Cosmos 2151 3.2 19:00:00 10° NNW 19:04:17 76° W 19:08:31 10° S
SL-08 R/B 4.5 18:59:30 10° S 19:05:39 88° E 19:11:48 10° N
Cosmos 44 3.5 19:03:16 10° S 19:07:20 40° ESE 19:11:25 10° NE
MOS 1 4.3 19:03:17 10° SSE 19:08:55 69° ENE 19:14:35 10° NNW
NOAA 12 4.4 19:03:58 10° SE 19:09:00 46° ENE 19:14:05 10° N
EO 1 Del DPAF 3.6 19:06:31 10° NNE 19:10:13 41° E 19:13:52 10° S
Ariane Rocket 4.1 19:05:16 10° S 19:10:13 51° W 19:15:13 10° NNW
Landsat 4 3.6 19:06:53 10° NNE 19:10:37 72° ESE 19:14:19 10° S
COSMO-SKYMED 1 3.0 19:07:41 10° NNE 19:11:47 39° E 19:15:51 10° SSE
MONITOR-E 4.3 19:09:34 10° SSE 19:12:34 52° ENE 19:15:35 10° N
Cosmos 2219 Rocket 2.2 19:09:45 10° NNW 19:15:22 69° ENE 19:20:57 10° SE
MTI 3.7 19:13:31 10° NNE 19:16:44 61° ESE 19:19:54 10° S
METEOR-M 4.1 19:13:06 10° SSE 19:18:26 77° ENE 19:23:48 10° NNW
SMAP 4.2 19:14:57 10° S 19:19:27 48° W 19:23:59 10° NNW
Meteor 1-28 Rocket 3.1 19:16:09 10° NNE 19:19:57 86° ESE 19:23:43 10° SSW
Cosmos 1805 Rocket 3.6 19:16:32 10° N 19:20:52 55° ENE 19:25:12 10° SSE
Abrixas rocket 2.4 19:18:07 10° W 19:21:24 66° S 19:23:57 16° ESE
Resurs 01 Rocket 3.4 19:21:17 13° ENE 19:21:56 13° NE 19:24:02 10° NNE
CZ-4 R/B 2.5 19:19:51 10° S 19:23:54 49° W 19:27:55 10° NNW
BREEZE-M DEB (TANK) 4.0 19:12:46 10° W 19:26:25 67° S 19:29:58 16° E
Aureole 2 Rocket 2.7 19:22:44 10° NNW 19:26:41 86° ENE 19:30:45 10° SSE
GRACE-2 3.5 19:26:17 10° S 19:28:50 90° ENE 19:31:25 10° N
CZ-4C R/B 2.4 19:24:42 10° SSW 19:29:47 50° ESE 19:35:37 10° NE
Cosmos 1666 Rocket 3.8 19:26:15 10° N 19:30:26 45° ENE 19:34:35 10° SSE
Cosmos 1315 Rocket 4.0 19:30:11 10° NNW 19:34:09 48° W 19:38:06 10° S
Cosmos 1633 Rocket 3.4 19:29:56 10° N 19:34:09 41° ENE 19:38:21 10° SE
GRACE-1 4.0 19:33:00 10° S 19:35:33 66° W 19:38:09 10° N
YAOGAN 1 3.5 19:32:23 10° S 19:36:37 52° W 19:40:53 10° NNW
Cosmos 1269 Rocket 4.0 19:33:19 10° S 19:38:32 64° ESE 19:43:46 10° NNE
FREGAT/IRIS 3.4 19:37:52 26° ESE 19:38:40 30° ENE 19:41:21 10° N
Iridium 4 Rocket 3.7 19:36:03 10° S 19:41:46 72° E 19:47:42 10° N
SKYMED 3 4.5 19:37:35 10° NNE 19:41:57 78° ESE 19:46:18 10° S
USA 234 3.9 19:39:19 16° ENE 19:44:21 47° N 19:50:34 10° WNW
Cosmos 2084 3.8 19:42:11 10° NW 19:45:54 55° SW 19:49:41 10° SSE
Cosmos 44 Rocket 3.1 19:44:03 10° SW 19:48:45 87° SE 19:52:58 13° NE
Cosmos 1908 3.9 19:45:16 10° SSW 19:49:07 58° WNW 19:52:58 10° N
Cosmos 494 Rocket 4.5 19:46:20 10° SSE 19:50:56 35° ESE 19:54:55 13° NE
In-Cosmos 22 Rocket 4.3 19:45:44 10° N 19:51:27 62° ENE 19:57:12 10° SSE
Cosmos 2221 2.8 19:48:45 10° SSW 19:53:04 70° WNW 19:57:28 10° N
Cosmos 2237 Rocket 2.1 19:48:31 10° NNW 19:54:15 75° ENE 19:59:57 10° SE
SPOT 3 Rocket 4.0 19:49:22 10° S 19:54:32 65° WSW 19:59:45 10° NNW
SJ-6B 3.0 19:56:39 32° ESE 19:57:46 42° ENE 20:01:20 10° N
Lacrosse 5 rocket 2.6 19:54:32 10° WNW 19:58:27 31° N 20:00:02 23° NE
Cosmos 1110 Rocket 4.0 19:53:26 10° NNW 19:58:47 87° WSW 20:04:04 10° SSE
H-2A R/B 2.8 19:55:28 12° SSE 19:59:03 57° ENE 20:02:56 10° N
SKYMED 2 3.8 19:55:37 10° N 19:59:57 71° WNW 20:04:17 10° SSW
Cosmos 1934 Rocket 4.0 19:54:42 10° S 20:01:00 67° E 20:07:19 10° NNE
Cosmos 1821 Rocket 4.0 19:58:32 10° S 20:04:45 89° E 20:11:06 10° N
Cosmos 2227 Rocket 2.6 20:00:15 10° S 20:05:26 39° ESE 20:08:05 25° ENE
MOS 1-B Rocket 4.2 20:03:12 19° SE 20:07:13 48° ENE 20:13:27 10° N
SL-16 R/B 2.5 20:02:18 10° NNW 20:07:47 46° NE 20:09:56 32° ESE
Cosmos 2239 Rocket 4.5 20:03:20 10° S 20:09:29 85° W 20:15:43 10° N
USA 32 4.1 20:04:45 10° N 20:09:52 50° ENE 20:13:51 16° SSE
Cosmos 1300 2.5 20:06:25 10° S 20:10:14 80° E 20:14:05 10° NNE
Cosmos 2098 Rocket 3.9 20:05:11 10° SSW 20:10:18 76° W 20:16:50 10° N
Cosmos 1892 3.4 20:09:13 10° N 20:12:01 36° NE 20:12:01 36° NE
ATLAS 5 CENTAUR R/B 3.6 20:11:00 10° NW 20:15:25 24° NNE 20:17:13 21° NE
Cosmos 1980 3.9 20:13:20 10° NNW 20:18:59 71° WSW 20:24:35 10° SSE
APEX 4.4 20:16:56 10° WSW 20:19:27 28° NW 20:20:37 20° NNW
ALOS 3.2 20:15:40 10° S 20:20:12 49° W 20:24:45 10° NNW
FENGYUN 3A 4.5 20:20:18 10° S 20:25:33 51° W 20:30:52 10° NNW
SWAS 4.3 20:23:13 10° SSW 20:27:24 63° ESE 20:27:24 63° ESE
Meteor 2-10 4.0 20:22:29 10° SSW 20:27:33 83° WNW 20:32:48 10° N
Envisat 3.2 20:28:03 46° ENE 20:28:12 46° ENE 20:33:04 10° N
CZ-2D R/B 3.9 20:29:18 43° NNE 20:29:18 43° NNE 20:32:12 10° N
Cosmos 1470 Rocket 3.4 20:24:32 10° N 20:29:03 77° E 20:30:26 44° SSE
Cosmos 2123 Rocket 4.3 20:25:19 10° NNW 20:31:32 69° W 20:37:45 10° S
Meteor 2-3 Rocket 3.6 20:26:44 10° N 20:32:32 73° ENE 20:35:42 27° SSE
Cosmos 2251 Rocket 3.5 20:28:12 10° S 20:33:24 59° ESE 20:34:47 44° NE
Cosmos 2333 Rocket 3.5 20:28:33 10° NW 20:33:53 40° WSW 20:39:12 10° S
BREEZE-M DEB (TANK) 4.3 20:32:38 10° WSW 20:33:16 18° WSW 20:33:16 18° WSW
Cosmos 1726 3.8 20:31:57 10° SW 20:35:20 34° WNW 20:38:44 10° N
Cosmos 2219 3.9 20:32:14 10° SW 20:37:53 56° NW 20:43:32 10° NNE
Cosmos 1605 Rocket 3.8 20:33:14 10° S 20:39:19 86° E 20:45:27 10° N
BREEZE-M DEB (TANK) 4.2 20:22:22 10° WNW 20:39:52 57° SW 20:42:21 32° SSE
Cosmos 2297 Rocket 2.1 20:36:48 10° S 20:42:21 60° ESE 20:42:52 58° E
HJ-1C 4.4 20:45:48 47° WNW 20:45:48 47° WNW 20:48:38 10° NNW
SL-8 R/B 3.6 20:41:19 10° W 20:46:09 79° S 20:46:19 78° SSE
Cosmos 1153 Rocket 4.3 20:40:05 10° S 20:46:10 69° E 20:52:24 10° NNE
Cosmos 44 4.5 20:44:38 10° WSW 20:48:36 34° NW 20:50:27 24° N
Thor Agena Rocket 3.7 20:44:25 10° NNE 20:49:31 71° WNW 20:54:32 10° SSW
Cosmos 2082 3.5 20:48:12 10° SSW 20:53:52 72° ESE 20:54:11 70° E
Meteor 2-17 Rocket 4.3 20:48:14 10° S 20:54:15 72° E 21:00:21 10° NNE
Resurs 01 Rocket 2.2 20:58:52 50° NNW 20:58:52 50° NNW 21:02:11 10° NNW
Resurs 1-3 4.4 20:59:41 44° N 20:59:41 44° N 21:02:44 10° NNW
Cosmos 2219 Rocket 4.5 20:54:34 10° NW 20:58:47 22° WSW 21:03:00 10° SSW
Cosmos 2228 Rocket 4.4 21:09:27 10° SSW 21:15:25 37° NNW 21:18:26 10° N
CZ-4C R/B 3.2 21:13:09 10° WSW 21:18:26 44° NNW 21:21:00 29° NNE
USA 234 3.3 21:26:41 64° NNE 21:26:52 64° NNE 21:33:21 10° WNW
Spot 2 Rocket 4.2 21:32:41 50° WNW 21:32:41 50° WNW 21:36:52 10° NNW
Cosmos 2237 Rocket 4.4 21:33:36 10° NW 21:37:42 21° W 21:41:48 10° SSW
Lacrosse 5 rocket 3.7 21:34:05 10° NW 21:35:43 22° NW 21:35:43 22° NW
Cosmos 2227 Rocket 3.2 21:44:05 10° WSW 21:49:28 43° NW 21:50:00 42° NW
SL-16 R/B 3.4 21:46:40 10° NW 21:51:48 36° WSW 21:51:50 36° WSW
H-2A R/B 4.4 22:04:11 16° N 22:04:11 16° N 22:05:16 10° N
ATLAS 5 CENTAUR R/B 3.6 21:55:34 10° NW 21:58:45 34° NNW 21:58:45 34° NNW
Cosmos 2297 Rocket 4.1 22:21:50 10° WSW 22:24:46 24° W 22:24:46 24° W
